This demonstration page uses our WeatherBlox Daily Observations layout. Learn more.

Left ArrowRight Arrow

39.51506, -84.39828

Hourly Observations for March 9, 2020

Temp ( °F °C ) Dew Point ( °F °C ) Humidity (%) Winds ( mph kmh ) Pressure ( in mb ) Visibility ( mi km ) Precip ( " mm )
12:15 am 00:15 Clear 47 8.4 27 -2.6 46 46 SSW 7 11 30.33 1027 10 16.0934 0 0
12:35 am 00:35 Clear 45 7.4 27 -2.7 49 49 SW 6 9 30.34 1027 10 16.0934 0 0
12:55 am 00:55 Clear 44 6.5 28 -2.1 55 55 SW 8 13 30.35 1028 10 16.0934 0 0
1:15 am 01:15 Clear 46 7.5 28 -2 51 51 SW 7 11 30.35 1028 10 16.0934 0 0
1:35 am 01:35 Clear 42 5.6 28 -2 58 58 SSW 6 9 30.35 1028 10 16.0934 0 0
1:55 am 01:55 Clear 40 4.7 30 -0.9 67 67 SSW 6 9 30.35 1028 10 16.0934 0 0
2:15 am 02:15 Clear 42 5.7 30 -0.9 63 63 SSW 5 7 30.35 1028 10 16.0934 0 0
2:35 am 02:35 Clear 45 7 29 -1.7 54 54 SW 3 6 30.35 1028 10 16.0934 0 0
2:55 am 02:55 Clear 46 7.5 29 -1.8 52 52 SW 3 6 30.35 1028 10 16.0934 0 0
3:15 am 03:15 Clear 43 6.3 29 -1.9 56 56 SSW 5 7 30.35 1028 10 16.0934 0 0
3:35 am 03:35 Clear 45 7.4 29 -1.5 54 54 SSW 7 11 30.35 1028 10 16.0934 0 0
3:55 am 03:55 Clear 48 8.7 31 -0.6 52 52 SSW 9 15 30.33 1027 10 16.0934 0 0
4:15 am 04:15 Clear 50 10.2 30 -1.2 45 45 SSW 10 17 30.33 1027 10 16.0934 0 0
4:35 am 04:35 Clear 52 10.9 29 -1.6 42 42 SSW 10 17 30.32 1027 10 16.0934 0 0
4:55 am 04:55 Clear 51 10.3 29 -1.7 43 43 S 10 17 30.33 1027 10 16.0934 0 0
5:15 am 05:15 Clear 50 9.9 29 -1.9 44 44 S 10 17 30.33 1027 10 16.0934 0 0
5:35 am 05:35 Clear 49 9.4 28 -2 45 45 S 8 13 30.34 1027 10 16.0934 0 0
5:55 am 05:55 Partly Cloudy 49 9.6 29 -1.8 45 45 S 9 15 30.34 1027 10 16.0934 0 0
6:15 am 06:15 Partly Cloudy 49 9.4 28 -2 45 45 S 10 17 30.34 1027 10 16.0934 0 0
6:35 am 06:35 Mostly Cloudy 49 9.2 29 -1.8 46 46 S 9 15 30.35 1028 10 16.0934 0 0
6:55 am 06:55 Clear 49 9.4 28 -2 45 45 S 9 15 30.35 1028 10 16.0934 0 0
7:15 am 07:15 Partly Cloudy 49 9.2 28 -2.1 45 45 S 9 15 30.35 1028 10 16.0934 0 0
7:35 am 07:35 Clear 48 8.7 28 -2 47 47 S 9 15 30.36 1028 10 16.0934 0 0
7:55 am 07:55 Clear 48 8.8 29 -1.9 47 47 S 9 15 30.36 1028 10 16.0934 0 0
8:15 am 08:15 Sunny 49 9.2 29 -1.7 47 47 S 9 15 30.36 1028 10 16.0934 0 0
8:35 am 08:35 Sunny 49 9.4 29 -1.5 47 47 S 9 15 30.36 1028 10 16.0934 0 0
8:55 am 08:55 Sunny 49 9.7 30 -1.3 47 47 S 8 13 30.36 1028 10 16.0934 0 0
9:15 am 09:15 Sunny 50 10.2 30 -1.1 46 46 S 12 19 30.37 1028 10 16.0934 0 0
9:35 am 09:35 Sunny 51 10.7 30 -0.9 45 45 S 10 17 30.37 1028 10 16.0934 0 0
9:55 am 09:55 Sunny 53 11.6 31 -0.6 43 43 S 10 17 30.37 1028 10 16.0934 0 0
10:15 am 10:15 Sunny 55 12.6 31 -0.6 40 40 S 14 22 30.36 1028 10 16.0934 0 0
10:35 am 10:35 Sunny 56 13.1 31 -0.3 40 40 SSW 16 26 30.36 1028 10 16.0934 0 0
10:55 am 10:55 Sunny 56 13.6 32 0.2 40 40 SSW 17 28 30.36 1028 10 16.0934 0 0
11:15 am 11:15 Sunny 59 14.9 34 1.2 40 40 SSW 15 24 30.35 1028 10 16.0934 0 0
11:35 am 11:35 Sunny 59 15.1 35 1.9 41 41 SSW 22 35 30.35 1028 10 16.0934 0 0
11:55 am 11:55 Sunny 60 15.6 37 2.6 42 42 SSW 21 33 30.35 1028 10 16.0934 0 0
12:15 pm 12:15 Sunny 62 16.6 37 3 40 40 SW 25 41 30.33 1027 10 16.0934 0 0
12:35 pm 12:35 Sunny 60 15.8 36 2.2 40 40 SW 21 33 30.33 1027 10 16.0934 0 0
12:55 pm 12:55 Sunny 61 16.1 35 1.8 38 38 SW 24 39 30.33 1027 10 16.0934 0 0
1:15 pm 13:15 Sunny 62 16.6 35 1.9 37 37 SW 20 31 30.32 1027 10 16.0934 0 0
1:35 pm 13:35 Sunny 63 17 36 2.2 37 37 SSW 24 39 30.31 1026 10 16.0934 0 0
1:55 pm 13:55 Sunny 64 17.6 36 2.4 36 36 SW 23 37 30.3 1026 10 16.0934 0 0
2:15 pm 14:15 Sunny 64 17.7 37 2.5 36 36 SSW 17 28 30.29 1026 10 16.0934 0 0
2:35 pm 14:35 Sunny 64 17.9 37 2.7 36 36 SSW 20 31 30.27 1025 10 16.0934 0 0
2:55 pm 14:55 Sunny 64 17.8 36 2.4 36 36 SSW 17 28 30.26 1025 10 16.0934 0 0
3:15 pm 15:15 Sunny 64 18 37 2.7 36 36 SSW 15 24 30.24 1024 10 16.0934 0 0
3:35 pm 15:35 Sunny 65 18.3 37 2.7 35 35 SSW 15 24 30.23 1024 10 16.0934 0 0
3:55 pm 15:55 Sunny 65 18.4 37 3 36 36 SSW 18 30 30.22 1023 10 16.0934 0 0
4:15 pm 16:15 Sunny 65 18.5 37 2.7 35 35 SSW 16 26 30.21 1023 10 16.0934 0 0
4:35 pm 16:35 Partly Cloudy 65 18.6 36 2 33 33 S 15 24 30.21 1023 10 16.0934 0 0
4:55 pm 16:55 Sunny 66 19 36 2.3 33 33 SSW 12 19 30.2 1023 10 16.0934 0 0
5:15 pm 17:15 Sunny 66 18.7 34 1.1 31 31 SSW 20 31 30.2 1023 10 16.0934 0 0
5:35 pm 17:35 Mostly Cloudy 65 18.3 35 1.5 33 33 SSW 21 33 30.2 1023 10 16.0934 0 0
5:55 pm 17:55 Cloudy 64 17.8 35 1.5 34 34 SSW 21 33 30.19 1022 10 16.0934 0 0
6:15 pm 18:15 Partly Cloudy 63 17.4 37 2.7 38 38 SW 22 35 30.2 1023 10 16.0934 0 0
6:35 pm 18:35 Sunny 63 17.1 38 3.6 41 41 SSW 16 26 30.19 1022 10 16.0934 0 0
6:55 pm 18:55 Sunny 63 17 39 4 42 42 SSW 16 26 30.18 1022 10 16.0934 0 0
7:15 pm 19:15 Mostly Cloudy 63 17 39 4 42 42 SSW 14 22 30.19 1022 10 16.0934 0 0
7:35 pm 19:35 Mostly Cloudy 62 16.5 40 4.6 45 45 SSW 14 22 30.18 1022 10 16.0934 0 0
7:55 pm 19:55 Clear 61 16.3 41 5 47 47 SSW 12 19 30.18 1022 10 16.0934 0 0
8:15 pm 20:15 Mostly Cloudy 62 16.4 42 5.4 48 48 SSW 13 20 30.18 1022 10 16.0934 0 0
8:35 pm 20:35 Mostly Cloudy 62 16.6 42 5.6 48 48 SSE 20 31 30.12 1020 10 16.0934 0 0
8:55 pm 20:55 Mostly Cloudy 62 16.4 42 5.7 49 49 SSW 12 19 30.15 1021 10 16.0934 0 0
9:15 pm 21:15 Partly Cloudy 61 16.3 42 5.6 49 49 S 15 24 30.14 1021 10 16.0934 0 0
9:35 pm 21:35 Mostly Cloudy 62 16.5 42 5.7 49 49 S 17 28 30.14 1021 10 16.0934 0 0
9:55 pm 21:55 Cloudy 61 16.2 44 6.6 53 53 SSW 16 26 30.15 1021 10 16.0934 0 0
10:15 pm 22:15 Cloudy 62 16.4 44 6.4 52 52 SSW 16 26 30.14 1021 10 16.0934 0 0
10:35 pm 22:35 Cloudy 62 16.5 43 6.3 51 51 S 20 31 30.13 1020 10 16.0934 0 0
10:55 pm 22:55 Cloudy with Light Rain 61 16 45 7 55 55 SSW 18 30 30.13 1020 10 16.0934 0 0
11:15 pm 23:15 Cloudy with Light Rain 59 15.2 46 8 62 62 S 23 37 30.13 1020 10 16.0934 0 0
11:35 pm 23:35 Cloudy with Light Rain 59 14.9 47 8.6 66 66 SSW 21 33 30.14 1021 10 16.0934 0 0
11:55 pm 23:55 Cloudy 58 14.7 48 8.7 68 68 SSW 25 41 30.13 1020 10 16.0934 0 0

Powered by AerisWeather